Starlink 11734

operational
NORAD ID: 64329 Int'l Des: 2025-124 Owner: SPXS Country: US Constellation: starlink
LEOCIRCULAR

关于 Starlink 11734

正在加载描述...

实时位置

正在加载3D地球...

即将过境

高度历史

Altitude vs Time

uPlot chart will show altitude changes over time

两行轨道根数

1 64329U 25124N 25261.27882866 .00277146 00000-0 20509-2 0 9996
2 64329 42.9978 348.0001 0003615 326.1816 33.8820 15.71311408 15723
Epoch: Sep 18, 2025 • Age: 19 hours

当前状态

高度 360.1 km
速度 7.69 km/s
星下点 -22.03°S, 162.02°E
发射日期 Jun 10, 2025
运行时间 0.2 years
类型 internet

技术详情

分类 Payload
质量 960.00 kg
干质量 910.00 kg
总质量 960.00 kg
长度 0.30 m
直径 4.10 m
跨度 29.00 m
形状 Box + pan
制造商 SPXS
平台类型 Starlink V2MD
阶段状态 In Orbit
所有者/国家 SPXS/US

大型星座

Loading constellations...